Terminal Aerodrome Forecast
Issued by NWS Chicago, IL

Home | Current Version | Previous Version | Graphics & Text | Print | Product List | Glossary On
Versions: 1 2 3 4 5 6 7 8 9 10 11 12 13 14 15 16 17 18 19 20 21 22 23 24 25 26 27 28 29 30
000
FTUS43 KLOT 200800 AAA
TAFRFD
TAF AMD
KRFD 200856Z 2009/2106 16008KT P6SM BKN300
     FM201500 20012G16KT P6SM FEW120 BKN250
     FM210100 18008KT P6SM BKN120=

USA.gov is the U.S. government's official web portal to all federal, state and local government web resources and services.